| time (UTC) | temp F | wind direction | speed MPH | gust MPH | rain 1hr in | rain 24hr in | rain mn in | humidity % | barometer mb |
| 20260503202654 | 80 | 158 | 3.0 | 7.0 | 0.00 | 0.00 | 0.00 | 10 | 1026.6 |
| 20260503201754 | 80 | 187 | 1.0 | 8.0 | 0.00 | 0.00 | 0.00 | 10 | 1026.8 |
| 20260503200854 | 79 | 222 | 4.0 | 11.0 | 0.00 | 0.00 | 0.00 | 10 | 1026.9 |
| 20260503195954 | 79 | 185 | 8.0 | 11.0 | 0.00 | 0.00 | 0.00 | 10 | 1027.2 |
| 20260503195054 | 78 | 190 | 7.0 | 10.0 | 0.00 | 0.00 | 0.00 | 10 | 1027.3 |
| 20260503194154 | 78 | 159 | 4.0 | 9.0 | 0.00 | 0.00 | 0.00 | 13 | 1027.6 |
| 20260503193254 | 77 | 156 | 2.0 | 6.0 | 0.00 | 0.00 | 0.00 | 12 | 1027.7 |
| 20260503191453 | 75 | 162 | 2.0 | 6.0 | 0.00 | 0.00 | 0.00 | 19 | 1027.9 |
| 20260503190554 | 73 | 129 | 1.0 | 8.0 | 0.00 | 0.00 | 0.00 | 22 | 1028.2 |
| 20260503185654 | 73 | 127 | 5.0 | 8.0 | 0.00 | 0.00 | 0.00 | 22 | 1028.4 |
| 20260503183853 | 72 | 116 | 2.0 | 8.0 | 0.00 | 0.00 | 0.00 | 24 | 1028.9 |
| 20260503182953 | 71 | 116 | 4.0 | 8.0 | 0.00 | 0.00 | 0.00 | 25 | 1029.1 |
| 20260503182054 | 71 | 99 | 3.0 | 10.0 | 0.00 | 0.00 | 0.00 | 26 | 1029.4 |
| 20260503181153 | 70 | 110 | 2.0 | 8.0 | 0.00 | 0.00 | 0.00 | 29 | 1029.4 |
| 20260503180254 | 68 | 109 | 2.0 | 9.0 | 0.00 | 0.00 | 0.00 | 30 | 1029.6 |
| 20260503175353 | 66 | 130 | 3.0 | 10.0 | 0.00 | 0.00 | 0.00 | 34 | 1029.8 |
| 20260503174453 | 67 | 93 | 4.0 | 8.0 | 0.00 | 0.00 | 0.00 | 31 | 1029.7 |
| 20260503173553 | 67 | 61 | 3.0 | 8.0 | 0.00 | 0.00 | 0.00 | 32 | 1029.9 |
| 20260503172653 | 66 | 91 | 3.0 | 6.0 | 0.00 | 0.00 | 0.00 | 33 | 1030.1 |
| 20260503170853 | 64 | 114 | 3.0 | 8.0 | 0.00 | 0.00 | 0.00 | 39 | 1030.4 |
| 20260503130553 | 39 | 2 | 3.0 | 6.0 | 0.00 | 0.00 | 0.00 | 82 | 1032.1 |
| 20260503080852 | 44 | 322 | 5.0 | 8.0 | 0.00 | 0.00 | 0.00 | 75 | 1031.5 |
| 20260503072352 | 46 | 314 | 6.0 | 8.0 | 0.00 | 0.00 | 0.00 | 73 | 1031.1 |
| 20260503071452 | 47 | 320 | 5.0 | 8.0 | 0.00 | 0.00 | 0.00 | 74 | 1030.9 |
| 20260503070552 | 47 | 330 | 6.0 | 8.0 | 0.00 | 0.00 | 0.00 | 74 | 1030.9 |
| 20260503060252 | 48 | 317 | 6.0 | 8.0 | 0.00 | 0.00 | 0.00 | 74 | 1030.4 |
| 20260503054452 | 49 | 317 | 8.0 | 9.0 | 0.00 | 0.00 | 0.00 | 73 | 1030.3 |
| 20260503053552 | 49 | 316 | 8.0 | 9.0 | 0.00 | 0.00 | 0.00 | 72 | 1030.1 |
| 20260503052652 | 50 | 332 | 7.0 | 9.0 | 0.00 | 0.00 | 0.00 | 70 | 1029.9 |
| 20260503051752 | 50 | 323 | 7.0 | 9.0 | 0.00 | 0.00 | 0.00 | 72 | 1029.8 |
| 20260503050852 | 50 | 317 | 6.0 | 9.0 | 0.00 | 0.00 | 0.00 | 71 | 1029.6 |
| 20260503045952 | 51 | 314 | 7.0 | 9.0 | 0.00 | 0.00 | 0.00 | 70 | 1029.6 |
| 20260503045052 | 51 | 315 | 7.0 | 10.0 | 0.00 | 0.00 | 0.00 | 70 | 1029.4 |
| 20260503044152 | 52 | 320 | 6.0 | 11.0 | 0.00 | 0.00 | 0.00 | 68 | 1029.2 |
| 20260503043252 | 52 | 314 | 8.0 | 10.0 | 0.00 | 0.00 | 0.00 | 70 | 1029.0 |
| 20260503042352 | 53 | 314 | 8.0 | 10.0 | 0.00 | 0.00 | 0.00 | 68 | 1029.1 |
| 20260503041452 | 53 | 318 | 8.0 | 10.0 | 0.00 | 0.00 | 0.00 | 68 | 1029.0 |
| 20260503040552 | 53 | 314 | 8.0 | 9.0 | 0.00 | 0.00 | 0.00 | 69 | 1028.9 |
| 20260503035652 | 53 | 314 | 8.0 | 10.0 | 0.00 | 0.00 | 0.00 | 68 | 1028.8 |
| 20260503034752 | 54 | 314 | 8.0 | 10.0 | 0.00 | 0.00 | 0.00 | 67 | 1028.6 |
| 20260503033852 | 54 | 314 | 6.0 | 9.0 | 0.00 | 0.00 | 0.00 | 66 | 1028.6 |
| 20260503032952 | 55 | 316 | 7.0 | 8.0 | 0.00 | 0.00 | 0.00 | 65 | 1028.6 |
| 20260503032052 | 56 | 332 | 6.0 | 10.0 | 0.00 | 0.00 | 0.00 | 61 | 1028.4 |
| 20260503031152 | 56 | 315 | 7.0 | 10.0 | 0.00 | 0.00 | 0.00 | 63 | 1028.4 |
| 20260503025351 | 58 | 318 | 9.0 | 12.0 | 0.00 | 0.00 | 0.00 | 58 | 1028.1 |
| 20260503023552 | 59 | 318 | 10.0 | 11.0 | 0.00 | 0.00 | 0.00 | 58 | 1028.0 |
| 20260503022652 | 60 | 323 | 9.0 | 11.0 | 0.00 | 0.00 | 0.00 | 57 | 1028.1 |
| 20260503021752 | 61 | 321 | 10.0 | 11.0 | 0.00 | 0.00 | 0.00 | 56 | 1027.8 |
| 20260503015951 | 62 | 316 | 8.0 | 10.0 | 0.00 | 0.00 | 0.00 | 56 | 1027.9 |
| 20260503015051 | 62 | 320 | 8.0 | 11.0 | 0.00 | 0.00 | 0.00 | 56 | 1027.9 |
| 20260503014152 | 63 | 314 | 8.0 | 9.0 | 0.00 | 0.00 | 0.00 | 54 | 1027.9 |
| 20260503013252 | 65 | 322 | 8.0 | 10.0 | 0.00 | 0.00 | 0.00 | 52 | 1028.1 |
| 20260503012352 | 65 | 315 | 8.0 | 9.0 | 0.00 | 0.00 | 0.00 | 49 | 1028.2 |
| 20260503010552 | 67 | 316 | 7.0 | 8.0 | 0.00 | 0.00 | 0.00 | 46 | 1028.1 |
| 20260503005651 | 69 | 318 | 7.0 | 8.0 | 0.00 | 0.00 | 0.00 | 42 | 1028.2 |
| 20260503004752 | 73 | 327 | 5.0 | 7.0 | 0.00 | 0.00 | 0.00 | 36 | 1028.3 |
| 20260503003851 | 76 | 349 | 2.0 | 4.0 | 0.00 | 0.00 | 0.00 | 33 | 1028.3 |
| 20260503002952 | 75 | 322 | 2.0 | 4.0 | 0.00 | 0.00 | 0.00 | 34 | 1028.2 |
| 20260503002051 | 76 | 335 | 3.0 | 4.0 | 0.00 | 0.00 | 0.00 | 31 | 1028.4 |
| 20260503001151 | 78 | 22 | 2.0 | 3.0 | 0.00 | 0.00 | 0.00 | 22 | 1028.4 |
| 20260503000251 | 79 | 110 | 0.0 | 3.0 | 0.00 | 0.00 | 0.00 | 13 | 1028.5 |
| 20260502235351 | 80 | 150 | 2.0 | 5.0 | 0.00 | 0.00 | 0.00 | 10 | 1028.4 |
| 20260502234451 | 80 | 122 | 2.0 | 5.0 | 0.00 | 0.00 | 0.00 | 10 | 1028.5 |
| 20260502233551 | 80 | 36 | 0.0 | 2.0 | 0.00 | 0.00 | 0.00 | 14 | 1028.7 |
| 20260502231751 | 77 | 359 | 2.0 | 4.0 | 0.00 | 0.00 | 0.00 | 21 | 1028.9 |
| 20260502225951 | 77 | 125 | 2.0 | 4.0 | 0.00 | 0.00 | 0.00 | 16 | 1029.1 |
| 20260502225051 | 78 | 83 | 2.0 | 4.0 | 0.00 | 0.00 | 0.00 | 11 | 1029.2 |
| 20260502224151 | 79 | 53 | 2.0 | 4.0 | 0.00 | 0.00 | 0.00 | 13 | 1029.4 |
| 20260502223251 | 79 | 58 | 2.0 | 8.0 | 0.00 | 0.00 | 0.00 | 10 | 1029.5 |
| 20260502222351 | 80 | 18 | 2.0 | 11.0 | 0.00 | 0.00 | 0.00 | 11 | 1029.5 |
| 20260502220551 | 80 | 70 | 7.0 | 11.0 | 0.00 | 0.00 | 0.00 | 10 | 1029.7 |
| 20260502214751 | 81 | 179 | 2.0 | 8.0 | 0.00 | 0.00 | 0.00 | 10 | 1029.7 |
| 20260502213851 | 81 | 111 | 3.0 | 8.0 | 0.00 | 0.00 | 0.00 | 10 | 1029.9 |
| 20260502212951 | 80 | 123 | 2.0 | 8.0 | 0.00 | 0.00 | 0.00 | 13 | 1029.9 |
| 20260502211151 | 80 | 135 | 3.0 | 10.0 | 0.00 | 0.00 | 0.00 | 12 | 1030.3 |
| 20260502210251 | 79 | 127 | 4.0 | 9.0 | 0.00 | 0.00 | 0.00 | 13 | 1030.4 |
| 20260502205351 | 79 | 100 | 3.0 | 9.0 | 0.00 | 0.00 | 0.00 | 15 | 1030.4 |
| 20260502204451 | 80 | 60 | 2.0 | 8.0 | 0.00 | 0.00 | 0.00 | 13 | 1030.5 |